EZY971 LIRN-LICJ

Flight info

Callsign EZY971
Flight time 0h 41m
Altitude 26000
Route DELER DCT AMANO M742 ROSAS
Aircraft B736/M-SDE2E3FGHIRWXY/LB1

Departure

Time 2026-05-07 05:20
Airport Naples International Airport (LIRN)

Arrival

Time 2026-05-07 06:02
Airport Falcone–Borsellino Airport (LICJ)
Time Latitude Longitude Altitude Speed Heading
2026-05-07 04:55 40.87874 14.28342 289 ft 0 kts 187°
2026-05-07 05:09 40.87882 14.28344 289 ft 2 kts 186°
2026-05-07 05:09 40.87899 14.28346 289 ft 2 kts 186°
2026-05-07 05:10 40.87915 14.28348 292 ft 2 kts 186°
2026-05-07 05:10 40.87931 14.28352 290 ft 2 kts 205°
2026-05-07 05:10 40.87941 14.28368 298 ft 2 kts 266°
2026-05-07 05:10 40.87941 14.28380 297 ft 1 kts 275°
2026-05-07 05:12 40.87942 14.28368 293 ft 3 kts 276°
2026-05-07 05:12 40.87947 14.28320 288 ft 7 kts 277°
2026-05-07 05:13 40.87955 14.28236 290 ft 11 kts 277°
2026-05-07 05:13 40.87982 14.28139 292 ft 12 kts 327°
2026-05-07 05:13 40.88044 14.28184 291 ft 13 kts 58°
2026-05-07 05:13 40.88064 14.28306 287 ft 15 kts 96°
2026-05-07 05:14 40.88050 14.28450 285 ft 16 kts 97°
2026-05-07 05:14 40.88040 14.28590 283 ft 11 kts 76°
2026-05-07 05:14 40.88067 14.28644 281 ft 11 kts 52°
2026-05-07 05:14 40.88120 14.28735 279 ft 14 kts 53°
2026-05-07 05:15 40.88189 14.28857 276 ft 19 kts 53°
2026-05-07 05:15 40.88273 14.28999 273 ft 21 kts 53°
2026-05-07 05:16 40.88356 14.29144 269 ft 20 kts 52°
2026-05-07 05:16 40.88440 14.29291 265 ft 20 kts 53°
2026-05-07 05:16 40.88523 14.29433 261 ft 19 kts 53°
2026-05-07 05:16 40.88603 14.29571 258 ft 19 kts 52°
2026-05-07 05:17 40.88679 14.29704 254 ft 18 kts 52°
2026-05-07 05:17 40.88754 14.29832 250 ft 17 kts 53°
2026-05-07 05:17 40.88826 14.29956 245 ft 17 kts 52°
2026-05-07 05:17 40.88895 14.30078 241 ft 17 kts 53°
2026-05-07 05:18 40.88974 14.30215 236 ft 20 kts 53°
2026-05-07 05:18 40.89044 14.30254 235 ft 0 kts 338°
2026-05-07 05:18 40.89060 14.30243 234 ft 5 kts 327°
2026-05-07 05:19 40.89104 14.30206 233 ft 10 kts 327°
2026-05-07 05:19 40.89104 14.30137 239 ft 0 kts 239°
2026-05-07 05:19 40.89062 14.30047 238 ft 39 kts 237°
2026-05-07 05:19 40.88800 14.29493 255 ft 101 kts 238°
2026-05-07 05:20 40.88337 14.28514 282 ft 148 kts 236°
2026-05-07 05:20 40.87763 14.27360 714 ft 149 kts 231°
2026-05-07 05:20 40.86986 14.26439 1206 ft 149 kts 212°
2026-05-07 05:20 40.86043 14.25996 1937 ft 144 kts 185°
2026-05-07 05:21 40.85011 14.26102 2493 ft 152 kts 173°
2026-05-07 05:21 40.82891 14.26492 3666 ft 165 kts 175°
2026-05-07 05:21 40.81660 14.26713 4004 ft 187 kts 175°
2026-05-07 05:22 40.80352 14.26950 4654 ft 191 kts 175°
2026-05-07 05:22 40.79027 14.27190 5355 ft 193 kts 176°
2026-05-07 05:22 40.77696 14.27429 6079 ft 193 kts 176°
2026-05-07 05:22 40.76358 14.27668 6768 ft 195 kts 176°
2026-05-07 05:23 40.75007 14.27908 7408 ft 197 kts 176°
2026-05-07 05:23 40.73640 14.28150 8056 ft 200 kts 176°
2026-05-07 05:23 40.72253 14.28396 8720 ft 202 kts 176°
2026-05-07 05:23 40.70849 14.28662 9395 ft 207 kts 173°
2026-05-07 05:24 40.69387 14.29162 9665 ft 234 kts 168°
2026-05-07 05:24 40.67748 14.29811 9937 ft 256 kts 167°
2026-05-07 05:24 40.66001 14.30508 10427 ft 270 kts 167°
2026-05-07 05:24 40.64094 14.31251 10621 ft 301 kts 167°
2026-05-07 05:25 40.62002 14.32055 11025 ft 321 kts 167°
2026-05-07 05:25 40.59828 14.32876 11809 ft 327 kts 170°
2026-05-07 05:25 40.57577 14.33061 12729 ft 324 kts 190°
2026-05-07 05:25 40.55408 14.32296 13696 ft 323 kts 201°
2026-05-07 05:26 40.53270 14.31298 14509 ft 328 kts 202°
2026-05-07 05:26 40.51116 14.30252 15340 ft 332 kts 202°
2026-05-07 05:26 40.48967 14.29207 16192 ft 335 kts 203°
2026-05-07 05:26 40.46765 14.28147 17037 ft 339 kts 203°
2026-05-07 05:27 40.44531 14.27082 17921 ft 342 kts 203°
2026-05-07 05:27 40.42299 14.26028 18907 ft 339 kts 203°
2026-05-07 05:27 40.40090 14.24992 19884 ft 336 kts 203°
2026-05-07 05:27 40.37894 14.23963 20800 ft 335 kts 203°
2026-05-07 05:28 40.35700 14.22936 21704 ft 334 kts 203°
2026-05-07 05:28 40.33518 14.21917 22675 ft 332 kts 203°
2026-05-07 05:28 40.31349 14.20905 23649 ft 330 kts 203°
2026-05-07 05:28 40.29192 14.19898 24441 ft 328 kts 203°
2026-05-07 05:29 40.27044 14.18896 25250 ft 327 kts 203°
2026-05-07 05:29 40.24891 14.17892 25716 ft 328 kts 203°
2026-05-07 05:29 40.22738 14.16889 25975 ft 329 kts 203°
2026-05-07 05:29 40.20523 14.15855 26001 ft 347 kts 203°
2026-05-07 05:30 40.18221 14.14781 26010 ft 365 kts 203°
2026-05-07 05:30 40.15775 14.13639 26005 ft 381 kts 202°
2026-05-07 05:30 40.13232 14.12450 26009 ft 396 kts 202°
2026-05-07 05:30 40.10600 14.11222 26005 ft 407 kts 202°
2026-05-07 05:31 40.07910 14.09969 25998 ft 410 kts 202°
2026-05-07 05:31 40.05222 14.08722 25981 ft 407 kts 202°
2026-05-07 05:31 40.02565 14.07490 25999 ft 404 kts 201°
2026-05-07 05:31 39.99922 14.06265 25993 ft 402 kts 201°
2026-05-07 05:32 39.97288 14.05043 25984 ft 401 kts 202°
2026-05-07 05:32 39.94663 14.03826 25985 ft 400 kts 201°
2026-05-07 05:32 39.92075 14.02626 25983 ft 399 kts 202°
2026-05-07 05:32 39.89457 14.01413 25983 ft 399 kts 202°
2026-05-07 05:33 39.86831 14.00197 25984 ft 400 kts 202°
2026-05-07 05:33 39.84209 13.98983 25987 ft 401 kts 202°
2026-05-07 05:33 39.81580 13.97768 25983 ft 401 kts 202°
2026-05-07 05:33 39.78949 13.96553 25979 ft 402 kts 202°
2026-05-07 05:34 39.76310 13.95335 25978 ft 402 kts 202°
2026-05-07 05:34 39.73695 13.94130 25980 ft 402 kts 202°
2026-05-07 05:34 39.71046 13.92910 25981 ft 403 kts 202°
2026-05-07 05:34 39.68409 13.91695 25980 ft 403 kts 202°
2026-05-07 05:35 39.65768 13.90481 25978 ft 403 kts 202°
2026-05-07 05:35 39.63156 13.89282 25961 ft 390 kts 202°
2026-05-07 05:35 39.60655 13.88138 25952 ft 373 kts 202°
2026-05-07 05:35 39.58258 13.87040 25784 ft 360 kts 202°
2026-05-07 05:36 39.55908 13.85963 25405 ft 354 kts 202°
2026-05-07 05:36 39.53586 13.84896 24770 ft 356 kts 202°
2026-05-07 05:36 39.51201 13.83798 23719 ft 370 kts 202°
2026-05-07 05:36 39.48733 13.82664 22503 ft 383 kts 202°
2026-05-07 05:37 39.46200 13.81506 21498 ft 388 kts 202°
2026-05-07 05:37 39.43686 13.80360 20767 ft 385 kts 202°
2026-05-07 05:37 39.41176 13.79218 20161 ft 379 kts 202°
2026-05-07 05:37 39.38705 13.78098 19580 ft 374 kts 202°
2026-05-07 05:38 39.36266 13.76993 18964 ft 370 kts 202°
2026-05-07 05:38 39.33847 13.75898 18373 ft 366 kts 201°
2026-05-07 05:38 39.31454 13.74815 17727 ft 362 kts 201°
2026-05-07 05:38 39.29092 13.73746 17108 ft 357 kts 201°
2026-05-07 05:39 39.26763 13.72692 16526 ft 352 kts 201°
2026-05-07 05:39 39.24454 13.71648 15895 ft 349 kts 201°
2026-05-07 05:39 39.22171 13.70616 15299 ft 346 kts 200°
2026-05-07 05:39 39.19941 13.69609 14728 ft 342 kts 200°
2026-05-07 05:40 39.17707 13.68601 14167 ft 338 kts 200°
2026-05-07 05:40 39.15500 13.67606 13583 ft 335 kts 200°
2026-05-07 05:40 39.13305 13.66617 12889 ft 334 kts 200°
2026-05-07 05:40 39.11111 13.65629 12296 ft 331 kts 200°
2026-05-07 05:41 39.08962 13.64662 12072 ft 324 kts 199°
2026-05-07 05:41 39.06838 13.63707 11820 ft 323 kts 200°
2026-05-07 05:41 39.04740 13.62764 11560 ft 314 kts 199°
2026-05-07 05:41 39.02709 13.61852 11305 ft 304 kts 199°
2026-05-07 05:42 39.00741 13.60969 11050 ft 295 kts 199°
2026-05-07 05:42 38.98828 13.60111 10797 ft 285 kts 199°
2026-05-07 05:42 38.96997 13.59289 10550 ft 275 kts 199°
2026-05-07 05:42 38.95194 13.58481 10314 ft 273 kts 199°
2026-05-07 05:43 38.93412 13.57682 10085 ft 272 kts 199°
2026-05-07 05:43 38.91555 13.56851 10034 ft 303 kts 199°
2026-05-07 05:43 38.89478 13.55923 10013 ft 322 kts 199°
2026-05-07 05:43 38.87362 13.54977 9954 ft 322 kts 199°
2026-05-07 05:44 38.85273 13.53886 9941 ft 324 kts 206°
2026-05-07 05:44 38.83353 13.52351 9948 ft 328 kts 215°
2026-05-07 05:44 38.81528 13.50570 9941 ft 329 kts 216°
2026-05-07 05:44 38.79722 13.48770 9938 ft 329 kts 216°
2026-05-07 05:45 38.77913 13.46962 9937 ft 329 kts 216°
2026-05-07 05:45 38.76104 13.45160 9937 ft 329 kts 216°
2026-05-07 05:45 38.74293 13.43364 9931 ft 329 kts 216°
2026-05-07 05:45 38.72504 13.41595 9941 ft 329 kts 216°
2026-05-07 05:46 38.70665 13.39781 9939 ft 330 kts 216°
2026-05-07 05:46 38.68869 13.38014 9939 ft 330 kts 215°
2026-05-07 05:46 38.67046 13.36223 9941 ft 330 kts 215°
2026-05-07 05:46 38.65223 13.34433 9933 ft 330 kts 215°
2026-05-07 05:47 38.63399 13.32644 9932 ft 330 kts 215°
2026-05-07 05:47 38.61576 13.30857 9924 ft 330 kts 215°
2026-05-07 05:47 38.59754 13.29073 9929 ft 330 kts 215°
2026-05-07 05:47 38.57933 13.27291 9930 ft 330 kts 215°
2026-05-07 05:48 38.56111 13.25509 9926 ft 330 kts 215°
2026-05-07 05:48 38.54290 13.23730 9920 ft 329 kts 215°
2026-05-07 05:48 38.52466 13.21948 9927 ft 329 kts 215°
2026-05-07 05:48 38.50647 13.20172 9922 ft 329 kts 214°
2026-05-07 05:49 38.48832 13.18402 9904 ft 326 kts 214°
2026-05-07 05:49 38.47078 13.16689 9881 ft 305 kts 214°
2026-05-07 05:49 38.45468 13.15113 9852 ft 278 kts 214°
2026-05-07 05:49 38.43973 13.13655 9557 ft 264 kts 213°
2026-05-07 05:50 38.42543 13.12265 9246 ft 260 kts 213°
2026-05-07 05:50 38.41111 13.10876 8926 ft 258 kts 213°
2026-05-07 05:50 38.39686 13.09493 8598 ft 256 kts 213°
2026-05-07 05:50 38.38270 13.08119 8280 ft 255 kts 213°
2026-05-07 05:51 38.36865 13.06755 8051 ft 251 kts 213°
2026-05-07 05:51 38.35498 13.05426 7899 ft 243 kts 213°
2026-05-07 05:51 38.34172 13.04138 7783 ft 235 kts 213°
2026-05-07 05:51 38.32875 13.02881 7506 ft 235 kts 213°
2026-05-07 05:52 38.31616 13.01607 7322 ft 230 kts 221°
2026-05-07 05:52 38.30768 12.99859 7089 ft 236 kts 242°
2026-05-07 05:52 38.30134 12.97933 6842 ft 237 kts 242°
2026-05-07 05:52 38.29489 12.96002 6597 ft 238 kts 242°
2026-05-07 05:53 38.28840 12.94070 6348 ft 239 kts 242°
2026-05-07 05:53 38.28189 12.92138 6095 ft 235 kts 242°
2026-05-07 05:53 38.27549 12.90239 5821 ft 231 kts 242°
2026-05-07 05:53 38.26919 12.88374 5575 ft 227 kts 242°
2026-05-07 05:54 38.26299 12.86542 5333 ft 225 kts 243°
2026-05-07 05:54 38.25677 12.84734 5291 ft 220 kts 239°
2026-05-07 05:54 38.24656 12.83330 5047 ft 218 kts 203°
2026-05-07 05:54 38.23222 12.82936 4872 ft 211 kts 171°
2026-05-07 05:55 38.21813 12.83404 4663 ft 210 kts 155°
2026-05-07 05:55 38.20471 12.84131 4432 ft 209 kts 153°
2026-05-07 05:55 38.19164 12.84862 4199 ft 206 kts 153°
2026-05-07 05:55 38.17859 12.85584 3989 ft 203 kts 152°
2026-05-07 05:56 38.16585 12.86280 3776 ft 195 kts 152°
2026-05-07 05:56 38.15359 12.86946 3618 ft 191 kts 152°
2026-05-07 05:56 38.14129 12.87614 3419 ft 191 kts 152°
2026-05-07 05:56 38.12911 12.88275 3226 ft 190 kts 150°
2026-05-07 05:57 38.11934 12.89280 3026 ft 176 kts 117°
2026-05-07 05:57 38.11609 12.90711 2873 ft 168 kts 89°
2026-05-07 05:57 38.11889 12.92137 2721 ft 168 kts 68°
2026-05-07 05:57 38.12352 12.93512 2536 ft 170 kts 68°
2026-05-07 05:58 38.12803 12.94864 2386 ft 170 kts 68°
2026-05-07 05:58 38.13271 12.96273 2147 ft 175 kts 69°
2026-05-07 05:58 38.13736 12.97664 1906 ft 166 kts 68°
2026-05-07 05:58 38.14181 12.98987 1666 ft 159 kts 69°
2026-05-07 05:59 38.14605 13.00246 1447 ft 151 kts 68°
2026-05-07 05:59 38.14999 13.01417 1285 ft 135 kts 68°
2026-05-07 05:59 38.15362 13.02451 1160 ft 126 kts 68°
2026-05-07 05:59 38.15715 13.03458 1038 ft 124 kts 67°
2026-05-07 06:00 38.16058 13.04467 869 ft 127 kts 68°
2026-05-07 06:00 38.16391 13.05486 685 ft 124 kts 66°
2026-05-07 06:00 38.16721 13.06465 521 ft 119 kts 69°
2026-05-07 06:00 38.17038 13.07454 324 ft 123 kts 69°
2026-05-07 06:01 38.17375 13.08469 162 ft 124 kts 66°
2026-05-07 06:01 38.17703 13.09434 70 ft 110 kts 68°
2026-05-07 06:01 38.17956 13.10217 62 ft 79 kts 67°
2026-05-07 06:01 38.18128 13.10727 66 ft 50 kts 67°
2026-05-07 06:02 38.18214 13.10984 68 ft 45 kts 66°
2026-05-07 06:02 38.18366 13.11437 63 ft 39 kts 67°
2026-05-07 06:02 38.18467 13.11736 66 ft 35 kts 67°
2026-05-07 06:02 38.18542 13.11891 71 ft 7 kts 10°
2026-05-07 06:03 38.18587 13.11852 62 ft 13 kts 299°
2026-05-07 06:03 38.18600 13.11758 64 ft 19 kts 275°
2026-05-07 06:03 38.18613 13.11581 65 ft 20 kts 263°
2026-05-07 06:03 38.18568 13.11415 61 ft 20 kts 247°
2026-05-07 06:04 38.18519 13.11220 64 ft 13 kts 299°
2026-05-07 06:04 38.18553 13.11166 64 ft 10 kts 285°
2026-05-07 06:04 38.18521 13.11045 60 ft 12 kts 246°
2026-05-07 06:04 38.18499 13.10981 63 ft 12 kts 246°
2026-05-07 06:05 38.18472 13.10876 64 ft 13 kts 274°
2026-05-07 06:05 38.18503 13.10757 64 ft 15 kts 290°
2026-05-07 06:05 38.18509 13.10697 64 ft 5 kts 308°
2026-05-07 06:05 38.18539 13.10680 62 ft 5 kts 336°
2026-05-07 06:06 38.18568 13.10663 62 ft 5 kts 336°
2026-05-07 06:06 38.18570 13.10662 64 ft 0 kts 336°